SCP
0 0 0 0 0 0 0 0 0 0 0 1 1 1 0 0 0 0 0 0 0 0 0 0 0 0 0 0 0 0 0 0 0 0 0 0 0 0 0 0 0 0 0
0 0 0 0 0 0 0 0 0 0 0 1 1 1 0 0 0 0 0 0 0 0 0 0 0 0 0 0 0 0 0 0 0 0 0 0 0 0 0 0 0 0 0
0 0 0 0 0 0 0 0 0 0 0 0 0 0 0 0 0 0 0 0 0 0 0 0 0 0 0 0 0 0 0 0 0 0 0 0 0 0 0 0 0 0 0
0 0 0 0 0 0 0 0 0 0 0 0 0 0 0 0 0 0 0 0 0 0 0 0 0 0 0 0 0 0 0 0 0 0 0 0 0 0 0 0 0 0 0
0 0 0 0 0 0 0 0 0 0 0 0 0 0 0 0 0 0 0 0 0 0 0 0 0 0 0 0 0 0 0 0 0 0 0 0 0 0 0 0 0 0 0
0 0 0 0 0 0 0 0 0 0 0 0 0 1 0 0 0 0 0 0 0 0 0 0 0 0 0 0 0 0 0 0 0 0 0 0 0 0 0 0 0 0 0
0 0 0 0 0 0 0 0 0 0 0 0 0 1 1 0 0 0 0 0 0 0 0 0 0 0 0 0 0 0 0 0 0 0 0 0 0 0 0 0 0 0 0
0 0 0 0 0 0 0 0 0 0 0 0 0 0 0 0 0 0 0 0 0 0 0 0 0 0 0 0 0 0 0 0 0 0 0 0 0 0 0 0 0 0 0
0 0 0 0 0 0 0 0 0 0 0 0 0 0 0 0 0 0 0 0 0 0 0 0 0 0 0 0 0 0 0 0 0 0 0 0 0 0 0 0 0 0 0
0 0 0 0 0 0 0 0 0 0 0 0 0 0 0 0 0 0 0 0 0 0 0 0 0 0 0 0 0 0 0 0 0 0 0 0 0 0 0 0 0 0 0
0 0 0 0 0 0 0 0 0 0 0 0 0 0 0 0 0 0 0 0 0 0 0 0 0 0 0 0 0 0 0 0 0 0 0 0 0 0 0 0 0 0 0
0 0 0 0 0 0 0 0 0 0 0 0 0 0 0 0 0 0 0 0 0 0 0 0 0 0 0 0 0 0 0 0 0 0 0 0 0 0 0 0 0 0 0
0 0 0 0 0 0 0 0 0 0 0 0 0 0 0 0 0 0 0 0 0 0 0 0 0 0 0 0 0 0 0 0 0 0 0 0 0 0 0 0 0 0 0
0 0 0 0 0 0 0 0 0 0 0 0 0 0 0 0 0 0 0 0 0 0 0 0 0 0 0 0 0 0 0 0 0 0 0 0 0 0 0 0 0 0 0
0 0 0 0 0 0 0 0 0 0 0 0 0 0 0 0 0 0 0 0 0 0 0 0 0 0 0 0 0 0 0 0 0 0 0 0 0 0 0 0 0 0 0
0 0 0 0 0 0 0 0 0 0 0 0 0 0 0 0 0 0 0 0 0 0 0 0 0 0 0 0 0 0 0 0 0 0 0 0 0 0 0 0 0 0 0
0 0 0 0 0 0 0 0 0 0 0 0 0 0 0 0 0 0 0 0 0 0 0 0 0 0 0 0 0 0 0 0 0 0 0 0 0 0 0 0 0 0 0
0 0 0 0 0 0 0 0 0 0 0 0 0 0 0 0 0 0 0 0 0 0 0 0 0 0 0 0 0 0 0 0 0 0 0 0 0 0 0 0 0 0 0
0 0 0 0 0 0 0 0 0 0 0 0 0 0 0 0 0 0 0 0 0 0 0 0 0 0 0 0 0 0 0 0 0 0 0 0 0 0 0 0 0 0 0
0 0 0 0 0 0 0 0 0 0 0 0 0 0 0 0 0 0 0 0 0 0 0 0 0 0 0 0 0 0 0 0 0 0 0 0 0 0 0 0 0 0 0
0 0 0 0 0 0 0 0 0 0 0 0 0 0 0 0 0 0 0 0 0 0 0 0 0 0 0 0 0 0 0 0 0 0 0 0 0 0 0 0 0 0 0
0 0 0 0 0 0 0 0 -0 0 0 0 0 0 0 0 0 0 0 0 0 0 0 0 0 0 0 0 0 0 0 0 0 0 0 0 0 0 0 0 0 0 0
0 0 0 0 0 0 0 -0 -0 0 0 0 0 0 0 0 0 0 0 0 0 0 0 0 0 0 0 0 0 0 0 0 0 0 0 0 0 0 0 0 0 0 0
0 0 0 0 0 0 0 0 0 0 0 0 0 0 0 0 0 0 0 0 0 0 0 0 0 0 0 0 0 0 0 0 0 0 0 0 0 0 0 0 0 0 0
0 0 0 0 0 0 0 0 0 0 0 0 0 0 0 0 0 0 0 0 0 0 0 0 0 0 0 0 0 0 0 0 0 0 0 0 0 0 0 0 0 0 0
0 0 0 0 0 0 0 0 0 0 0 0 0 0 0 0 0 0 0 0 0 0 0 0 0 0 0 0 0 0 0 0 0 0 0 0 0 0 0 0 0 0 0
Wind_Speed
1 2 4 6 8 8 9 9 9 9 9 10 11 11 10 10 10 10 10 10 10 10 10 10 10 10 11 11 11 11 11 11 12 11 11 11 11 12 12 11 10 7 11
3 2 4 6 8 8 8 9 9 9 9 9 10 10 10 9 10 10 10 10 10 10 10 9 10 10 10 10 11 11 11 11 11 11 11 10 10 11 11 10 9 6 11
3 3 4 6 7 8 8 8 8 8 8 8 9 9 9 9 9 9 9 9 9 9 9 9 10 10 10 10 10 10 10 11 11 11 10 5 5 9 10 9 9 9 10
4 3 3 6 7 8 8 8 7 7 7 7 8 8 9 8 9 9 9 8 9 9 9 9 9 9 10 10 9 9 10 10 10 9 5 4 4 7 8 8 8 8 8
3 3 3 7 7 8 8 7 7 7 7 7 7 7 8 8 8 8 8 8 8 8 8 8 9 9 9 9 9 9 9 10 10 7 4 4 3 5 7 7 7 7 7
3 3 3 7 7 8 8 8 7 6 6 6 7 7 7 8 8 8 7 8 8 8 7 8 8 8 8 8 8 8 9 9 8 4 4 3 2 4 5 6 5 5 5
3 2 3 6 7 7 7 7 7 6 6 6 6 7 7 7 7 7 7 7 7 7 7 7 8 8 8 8 8 8 8 8 5 4 3 3 2 4 4 4 4 4 4
3 3 3 4 5 6 6 7 7 7 6 5 5 6 7 7 7 7 6 7 7 7 7 7 7 7 7 7 7 7 7 7 5 4 3 2 3 4 3 3 3 3 3
3 3 2 2 3 4 5 6 6 6 6 5 5 6 5 6 6 6 6 6 6 6 6 6 6 6 7 7 7 7 7 7 4 2 2 2 3 3 3 3 3 3 2
3 3 2 2 2 2 3 5 6 6 5 5 5 6 6 5 6 6 5 5 5 5 5 5 5 6 6 6 6 6 7 6 3 2 1 2 4 3 2 2 2 2 2
2 2 2 2 2 2 2 3 4 5 5 5 4 6 5 3 3 3 4 5 5 5 4 5 5 6 6 5 6 6 5 2 2 1 1 3 3 3 3 2 2 2 2
1 0 1 2 2 2 2 2 2 3 3 3 3 3 3 3 3 4 5 5 5 5 4 5 5 5 5 3 3 4 2 2 2 1 2 4 3 3 3 3 2 2 2
2 0 1 1 1 2 2 2 2 2 2 3 3 3 3 2 2 3 2 3 3 4 3 3 3 2 2 2 2 1 1 1 1 1 2 4 4 4 4 3 3 3 3
2 2 1 1 1 2 2 2 2 2 1 2 2 2 2 2 2 2 1 1 1 1 2 2 2 2 2 2 2 1 1 1 1 1 2 4 4 4 4 4 3 3 3
3 2 2 2 2 2 2 2 2 2 1 1 1 2 2 2 2 1 1 1 1 1 1 1 1 2 1 1 1 1 1 1 1 1 2 4 5 4 4 4 4 4 4
3 3 2 2 2 3 2 2 2 2 1 1 1 1 2 2 2 1 1 1 1 1 1 1 1 1 1 0 1 1 0 0 1 1 1 3 5 5 5 5 5 5 5
4 3 3 3 2 3 2 2 2 2 2 1 1 1 2 2 2 2 1 0 0 1 1 1 1 1 1 1 1 1 1 0 1 1 1 1 2 4 5 5 6 6 6
3 3 2 2 2 2 2 2 2 2 2 1 1 1 2 2 2 2 1 1 0 1 1 1 1 1 1 1 1 1 1 1 1 1 1 1 1 2 3 5 6 6 7
4 3 3 3 3 3 2 2 2 2 2 1 1 1 1 1 2 2 1 1 1 1 1 1 1 1 0 1 1 1 1 1 1 1 1 1 1 1 1 3 5 6 7
2 3 3 3 3 2 2 2 2 2 1 1 1 1 2 1 2 2 1 1 1 1 1 1 1 1 0 1 1 1 1 1 1 1 1 1 1 1 1 2 2 4 6
2 3 3 3 3 3 2 2 2 2 1 1 1 1 2 2 2 2 1 1 1 1 1 1 1 1 1 1 1 1 2 1 1 1 1 1 1 1 1 1 1 2 3
2 3 3 3 4 3 3 2 2 1 1 1 1 1 1 2 2 2 2 2 1 1 1 1 1 1 1 1 1 0 2 2 2 1 1 1 1 1 1 2 2 2 2
1 2 3 4 4 3 3 2 2 2 1 1 1 0 0 1 1 2 2 2 2 1 1 1 2 2 1 0 0 1 1 2 2 2 1 1 1 1 1 2 2 2 2
2 1 1 2 3 3 3 4 4 3 2 2 1 1 1 1 1 1 2 2 2 1 1 1 1 1 2 1 0 0 1 1 1 2 2 1 2 2 2 2 2 2 2
1 1 1 2 2 3 3 3 3 2 2 1 1 1 1 0 1 1 1 1 1 1 2 1 1 1 2 2 2 1 1 1 1 2 3 3 2 2 2 2 2 2 2
1 1 1 2 2 2 3 3 3 3 2 2 1 1 0 0 0 0 1 1 1 1 2 2 2 2 2 2 2 2 2 2 2 2 3 3 3 3 3 2 2 2 2
Wind_Direction
221 203 177 141 137 133 128 125 120 116 112 113 114 110 106 106 108 108 107 103 99 97 96 95 94 92 91 89 88 85 82 79 77 76 76 78 80 80 78 74 72 68 74
181 177 155 138 134 131 130 124 120 119 117 117 117 114 111 108 107 106 106 105 103 100 97 96 93 91 90 90 88 86 83 80 76 72 69 70 76 79 79 76 77 75 74
132 151 150 134 134 128 126 125 122 121 119 120 119 118 117 114 110 108 105 104 103 102 98 94 91 89 88 89 88 87 84 81 77 70 62 49 60 77 79 76 74 74 73
125 129 135 129 127 124 123 121 121 123 124 124 124 122 121 118 114 109 106 104 101 100 98 95 92 89 89 88 88 87 85 81 75 68 57 46 46 76 80 78 75 74 72
105 104 123 126 128 125 124 121 119 122 125 129 128 124 121 120 116 110 106 104 102 98 98 98 94 90 89 87 86 84 83 79 71 63 57 47 40 71 77 77 73 71 71
95 91 111 122 125 124 123 122 121 121 125 127 125 126 124 120 119 116 111 107 105 102 100 99 97 93 90 89 88 86 82 76 69 59 52 42 33 66 77 77 76 71 70
99 86 103 117 122 120 120 116 117 115 114 122 124 122 122 121 123 119 113 109 106 104 101 100 102 97 93 89 88 87 83 75 67 58 45 30 26 59 75 69 70 70 71
105 86 83 114 116 117 119 114 107 107 108 113 118 114 115 116 117 116 111 107 102 102 99 96 103 99 94 92 89 85 79 72 67 56 40 19 20 46 64 60 55 58 59
81 76 69 78 104 111 112 107 103 100 97 98 99 95 99 108 109 112 110 106 101 97 97 94 96 99 96 93 88 84 77 67 65 53 32 2 9 28 47 47 39 39 36
65 59 58 57 68 90 110 101 96 94 90 86 79 75 78 87 93 98 102 103 102 99 97 95 91 88 93 92 86 81 75 65 57 47 18 348 3 5 10 28 23 20 16
61 44 54 63 64 71 93 93 90 88 80 75 75 75 76 69 73 77 83 95 100 100 101 99 93 82 74 78 80 78 72 61 57 34 349 347 356 354 348 349 354 352 355
205 13 55 68 78 80 81 83 76 72 70 65 68 75 76 68 65 68 69 79 80 82 87 88 81 75 67 58 63 69 62 57 52 7 338 343 340 341 347 344 329 323 320
199 247 16 69 89 94 93 88 78 71 70 66 70 72 77 77 66 62 61 59 59 65 65 70 70 59 59 61 59 66 64 57 33 346 330 338 330 327 328 336 334 323 315
181 213 182 118 109 108 105 102 97 86 78 75 72 81 89 89 79 70 67 65 65 74 82 70 75 77 67 61 73 83 72 55 10 339 324 336 326 322 321 323 326 321 311
192 204 196 158 138 125 113 115 105 98 100 98 89 84 99 106 96 82 74 73 75 83 96 91 87 91 82 57 52 67 71 35 346 334 323 336 334 325 319 318 316 313 315
200 203 190 174 162 139 135 137 131 122 109 95 92 92 103 111 117 103 80 73 65 76 95 110 114 101 100 82 31 6 332 312 300 313 316 332 343 336 326 323 323 319 316
201 196 181 175 158 152 151 151 138 136 127 122 125 122 125 126 129 130 119 99 93 91 91 92 82 72 59 34 355 331 320 285 288 301 308 315 330 341 336 327 323 325 322
188 184 181 164 152 157 159 153 143 139 139 151 159 140 143 144 142 138 145 161 127 103 108 107 93 70 28 355 322 318 319 296 271 274 291 305 321 337 339 339 333 327 324
180 176 177 164 161 159 153 143 137 136 141 153 161 150 144 150 150 143 149 150 118 97 98 109 70 112 42 324 296 300 301 279 264 279 260 277 283 309 322 336 339 332 325
168 172 172 163 159 144 128 111 106 106 124 139 172 173 161 158 151 141 138 138 130 118 105 112 104 52 92 295 305 313 295 274 252 260 257 270 279 316 332 330 330 327 327
165 165 172 166 167 151 146 154 158 176 186 184 193 174 165 163 154 146 139 141 145 146 167 152 124 60 10 354 29 332 317 291 252 263 248 241 290 312 326 320 313 312 313
180 179 174 177 176 178 176 174 167 153 154 148 110 88 166 166 163 156 150 155 156 147 142 140 124 111 31 40 107 34 329 328 318 287 268 230 277 310 315 317 306 305 306
206 187 185 188 186 187 165 134 113 95 76 76 81 128 90 140 153 156 156 151 154 158 180 189 155 144 175 284 120 150 176 258 300 305 291 295 315 313 307 308 310 313 309
227 205 176 170 160 154 148 152 152 158 173 190 177 160 98 114 130 146 149 148 160 170 177 205 170 166 172 199 225 210 197 180 228 306 310 306 305 292 288 299 305 312 311
215 166 158 143 137 133 140 150 152 160 158 131 127 134 134 117 128 141 156 157 176 179 179 183 177 182 188 192 194 195 211 217 207 225 280 303 311 288 285 279 280 290 295
49 75 117 136 133 137 144 151 161 168 157 146 167 174 178 66 176 161 175 176 194 188 190 197 197 193 198 200 204 203 200 194 205 216 249 279 289 291 293 280 264 269 279